Location: Pl�tzky
(52.0521°N, 11.8020°E)
Time: 13:20:54
(UTC+00:00)

ATLAS 2AS CENTAUR R/B - Pass Details

Date: 22 November 2019
Orbit: 926 x 1286 km, 63.7° (Epoch: 02 December)

Event Time Altitude Azimuth Distance (km) Brightness Sun altitude
Rises 19:08:34 0° 210° (SSW) 4,195 6.0 -35.6°
Reaches altitude 10° 19:11:20 10° 209° (SSW) 3,255 5.3 -36.0°
Enters shadow 19:14:58 30° 202° (SSW) 2,107 4.2 -36.5°
